SCP
0 0 0 0 0 0 0 0 0 0 0 0 0 0 0 0 0 0 0 0 0 0 0 0 0 0 0 0 0 0 0 0 0 0 0 0 0 0
0 0 0 0 0 0 0 0 0 0 0 0 0 0 0 0 0 0 0 0 0 0 0 0 0 0 0 0 0 0 0 0 0 0 0 0 0 0
0 0 0 0 0 0 0 0 0 0 0 0 0 0 0 0 0 0 0 0 0 0 0 0 0 0 0 0 0 0 0 0 0 0 0 0 0 0
0 0 0 0 0 0 0 0 0 0 0 0 0 0 0 0 0 0 0 0 0 0 0 0 0 0 0 0 0 0 0 0 0 0 0 0 0 0
0 0 0 0 0 0 0 0 0 0 0 0 0 0 0 0 0 0 0 0 0 0 0 0 0 0 0 0 0 0 0 0 0 0 0 0 0 0
0 0 0 0 0 0 0 0 0 0 0 0 0 0 0 0 0 0 0 0 0 0 0 0 0 0 0 0 0 0 0 0 0 0 0 0 0 0
0 0 0 0 0 0 0 0 0 0 0 0 0 0 0 0 0 0 0 0 0 0 0 0 0 0 0 0 0 0 0 0 0 0 0 0 0 0
0 0 0 0 0 0 0 0 0 0 0 0 0 0 0 0 0 0 0 0 0 0 0 0 0 0 0 0 0 0 0 0 0 0 0 0 0 0
0 0 0 0 0 0 0 0 0 0 0 0 0 0 0 0 0 0 0 0 0 0 0 0 0 0 0 0 0 0 0 0 0 0 0 0 0 0
0 0 0 0 0 0 0 0 0 0 0 0 0 0 0 0 0 0 0 0 0 0 0 0 0 0 0 0 0 0 0 0 0 0 0 0 0 0
0 0 0 0 0 0 0 0 0 0 0 0 0 0 0 0 0 0 0 0 0 0 0 0 0 0 0 0 0 0 0 0 0 0 0 0 0 0
0 0 0 0 0 0 0 0 0 0 0 0 0 0 0 0 0 0 0 0 0 0 0 0 0 0 0 0 0 0 0 0 0 0 0 0 0 0
0 0 0 0 0 0 0 0 0 0 0 0 0 0 0 0 0 0 0 0 0 0 0 0 0 0 0 0 0 0 0 0 0 0 0 0 0 0
0 0 0 0 0 0 0 0 0 0 0 0 0 0 0 0 0 0 0 0 0 0 0 0 0 0 0 0 0 0 0 0 0 0 0 0 0 0
0 -0 -0 -0 -0 -0 -0 -0 0 0 0 0 0 0 0 0 0 0 0 0 0 0 0 0 0 0 0 0 0 0 0 0 0 0 0 0 0 0
-0 -0 -0 -0 -0 -0 0 0 0 0 0 0 0 0 0 0 0 0 0 0 0 0 0 0 0 0 0 0 0 0 0 0 0 0 0 0 0 0
-0 -0 0 0 0 0 -0 -0 0 0 0 0 0 0 0 0 0 0 0 0 0 0 0 0 0 0 0 0 0 0 0 0 0 0 0 0 0 0
0 0 0 0 0 -0 0 0 0 0 0 0 0 0 0 0 0 0 0 0 0 0 0 0 0 0 0 0 0 0 0 0 0 0 0 0 0 0
-0 0 0 0 -0 0 0 0 0 0 0 0 0 0 0 0 0 0 0 0 0 0 0 0 0 0 0 0 -0 -0 0 0 0 0 0 0 0 0
-0 0 0 0 0 0 0 0 0 0 0 0 0 0 0 0 0 0 0 0 0 0 0 0 0 0 0 0 0 0 -0 0 0 0 0 0 0 0
0 0 0 0 0 0 0 0 0 0 0 0 0 0 0 0 0 0 0 0 0 0 0 0 0 0 0 0 0 0 0 0 0 0 0 0 0 0
0 0 0 0 0 0 0 0 0 0 0 0 0 0 0 0 0 0 0 0 0 0 0 0 0 0 0 0 0 0 0 0 0 0 0 0 0 0
0 0 0 0 0 0 0 0 0 0 0 0 0 0 0 0 0 0 0 0 0 0 0 0 0 0 0 0 0 0 0 0 0 0 0 0 -0 0
Wind_Speed_500mb
111 104 102 99 95 96 96 79 82 62 66 60 54 72 70 65 59 53 46 39 36 35 31 20 14 9 13 15 17 13 7 13 9 13 13 14 19 18
116 109 103 101 99 88 92 87 84 82 68 72 77 73 73 60 51 50 43 38 36 26 21 14 10 11 16 16 18 13 15 13 18 18 17 15 15 15
113 100 102 100 99 101 93 87 82 84 76 68 71 64 65 58 58 51 47 36 28 23 17 15 16 16 16 17 17 17 18 19 17 17 16 17 21 25
113 102 102 99 97 103 98 93 93 91 85 83 71 71 73 67 58 52 39 33 24 17 15 17 12 15 18 14 15 16 15 14 17 17 16 22 25 27
113 105 106 104 105 105 103 97 96 94 92 85 87 82 75 66 60 47 38 23 24 19 18 13 13 12 12 11 11 12 13 13 13 16 20 24 26 27
103 107 114 107 110 104 107 105 100 93 80 81 96 92 76 61 54 41 42 34 26 19 15 13 11 14 11 8 10 12 10 9 12 16 21 25 29 32
88 98 103 101 108 112 106 101 94 84 86 97 99 88 74 63 50 45 36 28 27 20 16 13 11 13 11 13 12 13 12 12 15 19 24 28 32 34
75 66 64 68 80 71 61 54 54 69 77 91 81 75 61 51 46 37 34 39 29 23 19 13 12 14 12 13 15 18 14 14 20 26 31 33 36 39
70 66 70 77 86 93 88 86 82 75 70 72 67 57 52 44 42 42 36 31 22 20 19 17 15 13 13 16 18 18 15 18 25 29 32 35 38 40
110 115 112 101 88 86 91 92 88 76 69 64 57 53 43 40 36 31 26 23 21 19 21 18 18 16 15 17 19 19 23 23 28 29 32 36 37 42
100 93 89 90 86 86 90 93 85 75 62 55 52 48 42 37 29 25 26 23 23 22 20 16 16 13 13 17 18 14 15 27 29 33 34 37 38 49
94 88 81 82 74 68 74 78 79 71 59 51 44 39 31 27 24 22 18 18 16 16 14 13 12 8 6 9 10 16 21 28 33 35 37 35 47 51
97 87 72 67 61 57 55 57 59 59 51 44 41 36 32 26 20 16 14 12 11 11 12 10 7 4 4 5 13 20 24 35 36 35 31 42 46 52
96 85 66 50 52 53 54 53 50 46 43 38 35 34 27 24 20 16 11 7 7 6 9 6 5 5 7 12 15 21 28 32 37 34 47 46 49 51
77 71 63 56 53 50 47 44 40 36 32 29 27 26 21 18 13 8 6 3 3 4 3 3 4 7 11 16 22 28 36 32 30 52 55 59 65 66
65 59 54 49 42 40 39 38 34 29 23 19 19 19 15 12 8 5 4 5 4 4 1 3 7 10 13 18 23 25 26 31 49 52 58 65 67 69
52 51 49 42 40 37 34 30 26 23 17 16 13 13 11 9 6 6 7 5 4 1 2 6 10 14 16 17 17 20 28 41 48 56 64 71 75 78
42 43 42 37 31 29 24 21 19 15 12 11 11 10 8 8 5 4 1 2 3 1 5 10 12 13 13 22 22 24 38 47 51 58 63 78 87 84
27 32 29 25 20 19 16 14 11 10 8 6 5 5 4 3 2 4 6 5 2 2 6 10 13 21 26 29 18 27 43 44 53 60 66 69 83 92
19 19 19 18 15 13 10 7 6 3 2 2 0 1 2 4 4 6 7 4 2 4 7 12 18 19 27 32 35 41 35 43 50 63 72 77 82 81
9 10 9 7 9 8 3 3 4 5 4 5 5 7 8 7 8 10 9 5 0 6 11 15 18 23 29 36 41 46 38 39 46 57 69 78 82 94
5 1 1 1 0 5 5 7 9 11 12 11 11 10 9 9 11 11 7 3 7 11 14 16 21 27 33 36 38 47 62 61 55 57 59 53 62 84
13 10 8 9 11 10 12 11 12 12 11 13 13 11 10 10 11 9 2 4 7 8 12 18 23 27 26 33 44 55 61 65 70 76 75 68 61 66
Wind_Direction_500mb
217 223 217 222 227 223 220 217 212 192 204 202 205 211 213 212 209 200 200 195 197 197 199 194 181 225 237 186 178 206 239 307 339 339 347 335 341 5
214 221 221 218 222 221 221 221 225 223 210 212 213 214 208 203 197 197 193 192 191 185 182 171 235 223 219 217 222 238 272 320 330 338 338 340 351 349
214 213 219 217 218 220 221 223 223 225 223 211 216 210 199 194 189 191 183 179 179 178 176 222 215 200 215 219 231 262 298 314 325 324 324 326 322 331
210 208 214 212 215 222 221 223 224 226 226 219 204 189 188 181 182 179 175 168 170 189 194 205 205 208 226 244 259 282 301 311 322 330 329 328 330 329
211 218 217 214 215 218 220 224 225 225 222 213 182 177 176 171 168 167 150 157 187 178 184 190 203 230 245 261 284 307 320 328 332 330 331 326 323 323
209 210 210 217 217 219 220 222 221 211 205 194 172 169 165 161 155 150 159 173 185 188 183 182 203 244 273 294 318 327 326 333 329 327 325 322 323 328
193 204 209 213 210 211 212 204 204 195 178 168 159 155 155 155 161 169 165 170 184 190 197 196 209 229 269 297 318 329 330 329 327 323 320 325 326 326
197 192 187 189 194 189 176 170 172 168 157 147 146 154 157 153 161 167 175 180 171 191 196 208 224 248 271 288 303 305 305 315 325 329 330 330 325 325
150 150 143 141 139 132 126 130 133 136 142 144 147 147 140 152 175 175 177 186 181 182 195 194 217 237 261 277 291 289 290 315 327 329 330 330 327 325
133 131 131 132 131 131 134 132 128 127 128 128 131 140 150 160 174 180 176 175 173 178 191 200 212 239 261 275 276 270 283 309 319 332 332 325 320 321
126 128 130 128 133 137 136 131 129 129 136 139 146 148 152 156 162 172 172 178 169 177 195 213 211 227 256 262 270 278 288 311 327 328 321 318 321 321
119 118 119 121 124 126 125 129 131 132 137 139 140 140 143 150 157 162 171 185 186 173 190 193 192 211 221 240 255 285 307 318 326 327 325 325 327 325
115 111 108 111 117 123 121 125 122 127 129 132 133 137 142 146 152 153 162 174 184 181 169 186 196 209 242 284 295 310 315 321 321 320 322 328 327 331
114 115 120 116 110 115 117 113 116 122 125 128 128 128 134 141 141 146 138 152 175 176 174 186 232 282 311 316 315 313 313 321 321 324 326 327 328 330
111 109 111 112 112 111 106 107 112 114 117 127 128 126 127 117 111 116 133 147 159 150 185 250 313 332 327 320 320 323 320 324 324 329 331 333 336 337
103 111 113 111 107 104 111 114 113 115 119 120 121 114 116 114 123 140 136 176 181 179 195 319 325 322 330 329 326 323 326 332 333 334 332 332 337 341
110 113 113 111 112 113 116 119 122 119 120 117 118 117 121 119 136 144 153 156 171 160 335 318 319 331 337 341 337 331 335 337 338 335 334 335 338 340
109 111 109 109 110 111 112 114 111 112 119 124 121 121 126 129 124 129 177 190 197 146 322 322 331 332 337 0 358 344 340 336 337 342 342 338 334 340
104 104 103 100 103 109 110 107 113 119 119 112 123 113 102 103 115 199 211 211 242 344 343 331 333 357 6 6 19 357 334 343 346 342 340 334 332 333
119 111 114 116 111 94 88 86 70 89 113 195 181 248 217 210 201 209 217 224 339 336 349 357 11 1 359 354 344 351 353 352 345 340 335 335 333 327
137 133 119 114 83 65 21 317 271 239 241 246 232 236 238 220 200 201 204 195 192 21 19 15 10 1 347 344 342 348 350 356 346 337 341 333 332 331
235 250 217 139 305 274 284 271 252 229 226 230 224 217 204 189 181 191 182 75 35 27 18 5 355 350 350 347 347 346 349 348 344 342 341 335 326 320
247 239 243 243 240 245 260 247 236 230 225 225 217 205 187 184 185 199 186 22 11 15 357 354 352 359 356 354 352 353 349 345 343 342 346 345 326 322
Wind_Speed_850mb
111 104 102 99 95 96 96 79 82 62 66 60 54 72 70 65 59 53 46 39 36 35 31 20 14 9 13 15 17 13 7 13 9 13 13 14 19 18
116 109 103 101 99 88 92 87 84 82 68 72 77 73 73 60 51 50 43 38 36 26 21 14 10 11 16 16 18 13 15 13 18 18 17 15 15 15
113 100 102 100 99 101 93 87 82 84 76 68 71 64 65 58 58 51 47 36 28 23 17 15 16 16 16 17 17 17 18 19 17 17 16 17 21 25
113 102 102 99 97 103 98 93 93 91 85 83 71 71 73 67 58 52 39 33 24 17 15 17 12 15 18 14 15 16 15 14 17 17 16 22 25 27
113 105 106 104 105 105 103 97 96 94 92 85 87 82 75 66 60 47 38 23 24 19 18 13 13 12 12 11 11 12 13 13 13 16 20 24 26 27
103 107 114 107 110 104 107 105 100 93 80 81 96 92 76 61 54 41 42 34 26 19 15 13 11 14 11 8 10 12 10 9 12 16 21 25 29 32
88 98 103 101 108 112 106 101 94 84 86 97 99 88 74 63 50 45 36 28 27 20 16 13 11 13 11 13 12 13 12 12 15 19 24 28 32 34
75 66 64 68 80 71 61 54 54 69 77 91 81 75 61 51 46 37 34 39 29 23 19 13 12 14 12 13 15 18 14 14 20 26 31 33 36 39
70 66 70 77 86 93 88 86 82 75 70 72 67 57 52 44 42 42 36 31 22 20 19 17 15 13 13 16 18 18 15 18 25 29 32 35 38 40
110 115 112 101 88 86 91 92 88 76 69 64 57 53 43 40 36 31 26 23 21 19 21 18 18 16 15 17 19 19 23 23 28 29 32 36 37 42
100 93 89 90 86 86 90 93 85 75 62 55 52 48 42 37 29 25 26 23 23 22 20 16 16 13 13 17 18 14 15 27 29 33 34 37 38 49
94 88 81 82 74 68 74 78 79 71 59 51 44 39 31 27 24 22 18 18 16 16 14 13 12 8 6 9 10 16 21 28 33 35 37 35 47 51
97 87 72 67 61 57 55 57 59 59 51 44 41 36 32 26 20 16 14 12 11 11 12 10 7 4 4 5 13 20 24 35 36 35 31 42 46 52
96 85 66 50 52 53 54 53 50 46 43 38 35 34 27 24 20 16 11 7 7 6 9 6 5 5 7 12 15 21 28 32 37 34 47 46 49 51
77 71 63 56 53 50 47 44 40 36 32 29 27 26 21 18 13 8 6 3 3 4 3 3 4 7 11 16 22 28 36 32 30 52 55 59 65 66
65 59 54 49 42 40 39 38 34 29 23 19 19 19 15 12 8 5 4 5 4 4 1 3 7 10 13 18 23 25 26 31 49 52 58 65 67 69
52 51 49 42 40 37 34 30 26 23 17 16 13 13 11 9 6 6 7 5 4 1 2 6 10 14 16 17 17 20 28 41 48 56 64 71 75 78
42 43 42 37 31 29 24 21 19 15 12 11 11 10 8 8 5 4 1 2 3 1 5 10 12 13 13 22 22 24 38 47 51 58 63 78 87 84
27 32 29 25 20 19 16 14 11 10 8 6 5 5 4 3 2 4 6 5 2 2 6 10 13 21 26 29 18 27 43 44 53 60 66 69 83 92
19 19 19 18 15 13 10 7 6 3 2 2 0 1 2 4 4 6 7 4 2 4 7 12 18 19 27 32 35 41 35 43 50 63 72 77 82 81
9 10 9 7 9 8 3 3 4 5 4 5 5 7 8 7 8 10 9 5 0 6 11 15 18 23 29 36 41 46 38 39 46 57 69 78 82 94
5 1 1 1 0 5 5 7 9 11 12 11 11 10 9 9 11 11 7 3 7 11 14 16 21 27 33 36 38 47 62 61 55 57 59 53 62 84
13 10 8 9 11 10 12 11 12 12 11 13 13 11 10 10 11 9 2 4 7 8 12 18 23 27 26 33 44 55 61 65 70 76 75 68 61 66
Wind_Direction_850mb
217 223 217 222 227 223 220 217 212 192 204 202 205 211 213 212 209 200 200 195 197 197 199 194 181 225 237 186 178 206 239 307 339 339 347 335 341 5
214 221 221 218 222 221 221 221 225 223 210 212 213 214 208 203 197 197 193 192 191 185 182 171 235 223 219 217 222 238 272 320 330 338 338 340 351 349
214 213 219 217 218 220 221 223 223 225 223 211 216 210 199 194 189 191 183 179 179 178 176 222 215 200 215 219 231 262 298 314 325 324 324 326 322 331
210 208 214 212 215 222 221 223 224 226 226 219 204 189 188 181 182 179 175 168 170 189 194 205 205 208 226 244 259 282 301 311 322 330 329 328 330 329
211 218 217 214 215 218 220 224 225 225 222 213 182 177 176 171 168 167 150 157 187 178 184 190 203 230 245 261 284 307 320 328 332 330 331 326 323 323
209 210 210 217 217 219 220 222 221 211 205 194 172 169 165 161 155 150 159 173 185 188 183 182 203 244 273 294 318 327 326 333 329 327 325 322 323 328
193 204 209 213 210 211 212 204 204 195 178 168 159 155 155 155 161 169 165 170 184 190 197 196 209 229 269 297 318 329 330 329 327 323 320 325 326 326
197 192 187 189 194 189 176 170 172 168 157 147 146 154 157 153 161 167 175 180 171 191 196 208 224 248 271 288 303 305 305 315 325 329 330 330 325 325
150 150 143 141 139 132 126 130 133 136 142 144 147 147 140 152 175 175 177 186 181 182 195 194 217 237 261 277 291 289 290 315 327 329 330 330 327 325
133 131 131 132 131 131 134 132 128 127 128 128 131 140 150 160 174 180 176 175 173 178 191 200 212 239 261 275 276 270 283 309 319 332 332 325 320 321
126 128 130 128 133 137 136 131 129 129 136 139 146 148 152 156 162 172 172 178 169 177 195 213 211 227 256 262 270 278 288 311 327 328 321 318 321 321
119 118 119 121 124 126 125 129 131 132 137 139 140 140 143 150 157 162 171 185 186 173 190 193 192 211 221 240 255 285 307 318 326 327 325 325 327 325
115 111 108 111 117 123 121 125 122 127 129 132 133 137 142 146 152 153 162 174 184 181 169 186 196 209 242 284 295 310 315 321 321 320 322 328 327 331
114 115 120 116 110 115 117 113 116 122 125 128 128 128 134 141 141 146 138 152 175 176 174 186 232 282 311 316 315 313 313 321 321 324 326 327 328 330
111 109 111 112 112 111 106 107 112 114 117 127 128 126 127 117 111 116 133 147 159 150 185 250 313 332 327 320 320 323 320 324 324 329 331 333 336 337
103 111 113 111 107 104 111 114 113 115 119 120 121 114 116 114 123 140 136 176 181 179 195 319 325 322 330 329 326 323 326 332 333 334 332 332 337 341
110 113 113 111 112 113 116 119 122 119 120 117 118 117 121 119 136 144 153 156 171 160 335 318 319 331 337 341 337 331 335 337 338 335 334 335 338 340
109 111 109 109 110 111 112 114 111 112 119 124 121 121 126 129 124 129 177 190 197 146 322 322 331 332 337 0 358 344 340 336 337 342 342 338 334 340
104 104 103 100 103 109 110 107 113 119 119 112 123 113 102 103 115 199 211 211 242 344 343 331 333 357 6 6 19 357 334 343 346 342 340 334 332 333
119 111 114 116 111 94 88 86 70 89 113 195 181 248 217 210 201 209 217 224 339 336 349 357 11 1 359 354 344 351 353 352 345 340 335 335 333 327
137 133 119 114 83 65 21 317 271 239 241 246 232 236 238 220 200 201 204 195 192 21 19 15 10 1 347 344 342 348 350 356 346 337 341 333 332 331
235 250 217 139 305 274 284 271 252 229 226 230 224 217 204 189 181 191 182 75 35 27 18 5 355 350 350 347 347 346 349 348 344 342 341 335 326 320
247 239 243 243 240 245 260 247 236 230 225 225 217 205 187 184 185 199 186 22 11 15 357 354 352 359 356 354 352 353 349 345 343 342 346 345 326 322